Weather Roundup
Issued by NWS Chicago, IL

Home | Current Version | Previous Version | Text Only | Print | Product List | Glossary Off
Versions: 1 2 3 4 5 6 7 8 9 10 11 12 13 14 15 16 17 18 19 20 21 22 23 24 25 26 27 28 29 30 31 32 33 34 35 36 37 38 39 40 41 42 43 44 45 46 47 48 49 50

000
NZUS59 KLOT 230004
HRRLOT

CHICAGO AREA WEATHER ROUNDUP
NATIONAL WEATHER SERVICE CHICAGO/ROMEOVILLE IL
700 PM CDT THU JUN 22 2017

NOTE: "FAIR" INDICATES FEW OR NO CLOUDS BELOW 12,000 FEET WITH NO
SIGNIFICANT WEATHER AND/OR OBSTRUCTIONS TO VISIBILITY.

* THESE STATIONS ARE NOT UNDER NWS QUALITY CONTROL. THEY ALSO MAY NOT
  REPORT WEATHER SUCH AS PRECIPITATION OR FOG.

ILZ005-006-012>014-019>023-230100-
NORTHEAST ILLINOIS

CITY           SKY/WX    TMP DP  RH WIND       PRES   REMARKS
OHARE          MOSUNNY   85  68  56 SW16G28   29.69F HX  88
6HR MIN TEMP:  85; 6HR MAX TEMP:  88; 6HR PCP: TRACE;

MIDWAY         NOT AVBL
AURORA         SUNNY     83  70  64 S17G28    29.71F HX  87
6HR MIN TEMP:  83; 6HR MAX TEMP:  87;

LANSING*       CLOUDY    82  69  64 S16G25    29.75S HX  85
JOLIET*        MOSUNNY   83  73  71 S15G22    29.73F HX  90
WAUKEGAN       MOSUNNY   83  70  64 S14G23    29.70R HX  87
6HR MIN TEMP:  83; 6HR MAX TEMP:  88;

DUPAGE AIRPORT MOSUNNY   82  71  69 S17G28    29.70F HX  86
6HR MIN TEMP:  82; 6HR MAX TEMP:  86; 6HR PCP: TRACE;

WHEELING       MOSUNNY   85  70  60 S18G25    29.70F HX  89
6HR MIN TEMP:  84; 6HR MAX TEMP:  88;

MORRIS*        MOSUNNY   84  70  62 S15G21    29.71F HX  88
LEWIS AIRPORT* MOSUNNY   82  69  62 S16G25    29.72F HX  85
NORTHERLY ISL    N/A     82  68  62 S16         N/A  HX  85
$$

WIZ051-052-058>065-066-070>072-230100-
SOUTHEAST WISCONSIN

CITY           SKY/WX    TMP DP  RH WIND       PRES   REMARKS
MILWAUKEE      PTSUNNY   74  66  76 E7        29.71F
6HR MIN TEMP:  73; 6HR MAX TEMP:  87;

WAUKESHA       PTSUNNY   75  68  78 E5        29.72F
$$

INZ001>003-010>013-019-020-230100-
NORTHWEST INDIANA

CITY           SKY/WX    TMP DP  RH WIND       PRES   REMARKS
GARY*          MOSUNNY   82  70  65 S9        29.74F HX  86
MICHIGAN CITY* NOT AVBL
RENSSELAER*    NOT AVBL
VALPARAISO     CLOUDY    80  71  74 S15G24    29.78S HX  84
$$

LMZ740>746-230100-
SOUTHERN LAKE MICHIGAN

STATION/POSITION TIME  SKY/WX   TEMP WIND        PRES    VSBY
                                AIR  DIR/SP/G
                 (UTC)          (F)  (DEG/KT/KT) (MB)    (MI)
HARRISON CRIB    2340            80  180/ 21/ 22   N/A
BURNHAM HARBOR   0000            82                N/A
CALUMET HARBOR   2330            81  190/ 14/ 18 1006.4F
BURNS HARBOR     2340            81  200/ 21/ 30 1007.5F
MICHIGAN CITY    2340            81  190/ 18/ 21   N/A
$$

ABBREVIATIONS USED IN REMARKS
   TC - TEMPERATURE IN CELSIUS
  WCI - WIND CHILL INDEX
   HX - HEAT INDEX
  VSB - VISIBILITY
$$




USA.gov is the U.S. government's official web portal to all federal, state and local government web resources and services.